Location: Mentone
(34.5413°N, 85.5351°W)
Time: 16:05:20
(UTC-05:00)

Vanguard 3 - All Passes

Search period start: 01 September 2014 00:00
Search period end: 11 September 2014 00:00
Orbit: 508 x 3279 km, 33.4° (Epoch: 01 September)

Date Brightness Start Highest point End Pass type
(mag) Time Alt. Az. Time Alt. Az. Time Alt. Az.
01 Sep - 12:33:45 10° SSW 12:49:02 32° SE 13:04:29 10° E daylight
01 Sep - 14:45:17 10° SW 15:04:52 63° SSE 15:20:56 10° E daylight
01 Sep - 17:01:48 10° WSW 17:21:37 84° S 17:34:26 10° E daylight
01 Sep - 19:20:36 10° W 19:37:13 78° SSW 19:46:29 10° ESE visible
01 Sep - 21:39:16 10° W 21:49:58 37° SW 21:56:24 10° SSE visible
02 Sep - 11:24:10 10° S 11:35:23 20° SE 11:47:27 10° E daylight
02 Sep - 13:32:11 10° SW 13:50:12 50° SSE 14:07:18 10° E daylight
02 Sep - 15:46:38 10° WSW 16:06:55 78° SSE 16:21:58 10° E daylight
02 Sep - 18:04:40 10° W 18:23:32 85° S 18:34:52 10° E daylight
02 Sep - 20:23:31 10° W 20:37:56 58° SSW 20:46:01 10° SE visible
02 Sep - 22:43:31 10° W 22:49:02 16° SW 22:53:13 10° SSW visible
03 Sep - 12:20:23 10° SSW 12:35:57 37° SE 12:52:34 10° E daylight
03 Sep - 14:32:23 10° SW 14:51:58 68° SSE 15:08:56 10° E daylight
03 Sep - 16:48:57 10° W 17:09:08 86° S 17:22:44 10° E daylight
03 Sep - 19:07:40 10° W 19:25:00 74° SSW 19:34:56 10° ESE visible
03 Sep - 21:26:42 10° W 21:37:43 33° SW 21:44:33 10° SSE visible
04 Sep - 11:10:16 10° S 11:22:21 24° SE 11:36:02 10° E daylight
04 Sep - 13:19:15 10° SW 13:37:09 55° SSE 13:55:10 10° ENE daylight
04 Sep - 15:33:51 10° WSW 15:54:11 81° SSE 16:10:05 10° E daylight
04 Sep - 17:51:47 10° W 18:11:11 84° S 18:23:15 10° ESE daylight
04 Sep - 20:10:39 10° WNW 20:25:40 53° SSW 20:34:21 10° SE visible
04 Sep - 22:31:57 10° W 22:36:41 14° SW 22:40:30 10° SSW visible
05 Sep - 10:04:21 10° SE 10:09:22 12° SE 10:14:46 10° ESE daylight
05 Sep - 12:07:19 10° SSW 12:22:51 42° SE 12:40:24 10° E daylight
05 Sep - 14:19:40 10° WSW 14:39:02 73° SSE 14:56:50 10° E daylight
05 Sep - 16:36:11 10° W 16:56:35 87° S 17:10:59 10° E daylight
05 Sep - 18:54:43 10° W 19:12:40 70° SSW 19:23:18 10° ESE daylight
05 Sep - 21:14:09 10° W 21:25:20 30° SW 21:32:33 10° SSE visible
06 Sep - 10:56:51 10° S 11:09:16 28° SE 11:24:11 10° E daylight
06 Sep - 13:06:32 10° SW 13:24:05 61° SSE 13:42:53 10° ENE daylight
06 Sep - 15:21:13 10° WSW 15:41:26 84° S 15:58:07 10° E daylight
06 Sep - 17:38:55 10° W 17:58:43 81° SSW 18:11:33 10° ESE daylight
06 Sep - 19:57:46 10° WNW 20:13:15 48° SW 20:22:32 10° SE visible
06 Sep - 22:20:58 10° WSW 22:24:14 12° SW 22:27:05 10° SW visible
07 Sep - 09:49:06 10° SSE 09:56:26 15° SE 10:04:53 10° E daylight
07 Sep - 11:54:32 10° SSW 12:09:44 46° SE 12:28:03 10° ENE daylight
07 Sep - 14:07:07 10° WSW 14:26:07 77° SSE 14:44:39 10° E daylight
07 Sep - 16:23:29 10° W 16:43:58 86° S 16:59:09 10° E daylight
07 Sep - 18:41:47 10° WNW 19:00:12 66° SSW 19:11:33 10° SE daylight
07 Sep - 21:01:40 10° W 21:12:49 26° SW 21:20:21 10° S visible
08 Sep - 10:43:50 10° SSW 10:56:12 32° SE 11:11:59 10° E daylight
08 Sep - 12:54:01 10° SW 13:11:03 66° SSE 13:30:29 10° ENE daylight
08 Sep - 15:08:41 10° W 15:28:39 86° S 15:46:06 10° E daylight
08 Sep - 17:26:06 10° W 17:46:09 78° SSW 17:59:46 10° ESE daylight
08 Sep - 19:44:55 10° WNW 20:00:41 44° SW 20:10:35 10° SSE visible
09 Sep - 09:35:10 10° SSE 09:43:30 18° SE 09:53:43 10° E daylight
09 Sep - 11:41:59 10° SW 11:56:40 51° SE 12:15:31 10° ENE daylight
09 Sep - 13:54:43 10° WSW 14:13:12 80° SSE 14:32:22 10° E daylight
09 Sep - 16:10:52 10° W 16:31:16 85° S 16:47:15 10° E daylight
09 Sep - 18:28:52 10° WNW 18:47:35 61° SSW 18:59:40 10° SE daylight
09 Sep - 20:49:18 10° W 21:00:11 23° SW 21:07:55 10° S visible
10 Sep - 10:31:06 10° SSW 10:43:11 36° SE 10:59:33 10° E daylight
10 Sep - 12:41:41 10° WSW 12:58:05 70° SSE 13:17:58 10° E daylight
10 Sep - 14:56:16 10° W 15:15:51 87° S 15:33:59 10° E daylight
10 Sep - 17:13:19 10° W 17:33:28 75° SSW 17:47:52 10° ESE daylight
10 Sep - 19:32:08 10° W 19:47:58 39° SW 19:58:27 10° SSE visible
